EW3302 Weather Reports


Display with metric or nautical units.
time (UTC)temp
F
wind
direction
speed
MPH
gust
MPH
rain 1hr
in
rain 24hr
in
rain mn
in
humidity
%
barometer
mb
20260905073537 52 270 2.0 4.0 0.00 0.04 0.02 93 998.1
20260905072516 52 270 2.0 5.0 0.00 0.04 0.02 93 997.9
20260905071517 51 293 2.0 4.0 0.00 0.04 0.02 94 997.9
20260905070517 51 315 2.0 4.0 0.00 0.04 0.02 94 997.9
20260905065516 51 293 2.0 5.0 0.00 0.04 0.02 95 997.8
20260905064516 51 315 2.0 6.0 0.00 0.04 0.02 95 997.8
20260905063516 50 315 3.0 5.0 0.00 0.04 0.02 95 997.6
20260905062516 50 315 2.0 3.0 0.00 0.04 0.02 95 997.6
20260905061516 50 293 3.0 6.0 0.00 0.04 0.02 95 997.5
20260905060516 50 293 2.0 5.0 0.00 0.04 0.02 96 997.5
20260905055516 50 293 1.0 3.0 0.00 0.04 0.02 96 997.3
20260905054516 50 270 1.0 3.0 0.00 0.04 0.02 96 997.2
20260905053536 49 270 2.0 4.0 0.00 0.04 0.02 96 997.2
20260905052516 49 293 1.0 3.0 0.00 0.04 0.02 96 997.1
20260905051516 49 293 1.0 3.0 0.00 0.04 0.02 96 997.1
20260905050516 49 315 1.0 4.0 0.00 0.04 0.02 96 997.2
20260905045537 49 315 2.0 4.0 0.00 0.04 0.02 95 997.0
20260905044516 49 315 2.0 4.0 0.00 0.04 0.02 95 997.0
20260905043516 49 293 2.0 4.0 0.00 0.04 0.02 95 997.0
20260905042536 49 315 2.0 3.0 0.00 0.04 0.02 95 996.9
20260905041516 49 315 1.0 2.0 0.00 0.04 0.02 95 996.9
20260905040516 49 293 1.0 2.0 0.00 0.04 0.02 95 996.8
20260905035536 49 315 1.0 3.0 0.00 0.04 0.02 95 996.8
20260905034516 49 293 1.0 2.0 0.00 0.04 0.02 95 996.7
20260905033516 49 293 1.0 2.0 0.00 0.04 0.02 95 996.7
20260905032516 50 315 1.0 2.0 0.00 0.04 0.02 95 996.7
20260905031516 50 315 1.0 2.0 0.00 0.04 0.02 95 996.6
20260905030516 50 293 2.0 3.0 0.00 0.04 0.02 95 996.6
20260905025516 50 293 2.0 4.0 0.00 0.04 0.02 95 996.6
20260905024536 50 0.0 2.0 0.00 0.04 0.02 95 996.5
20260905023516 50 270 1.0 2.0 0.00 0.04 0.02 95 996.4
20260905022516 50 270 1.0 2.0 0.00 0.04 0.02 95 996.3
20260905021516 50 270 1.0 2.0 0.00 0.04 0.02 95 996.2
20260905020516 50 0.0 1.0 0.00 0.04 0.02 95 996.2
20260905015516 50 0.0 1.0 0.00 0.04 0.02 95 996.1
20260905014516 50 0.0 2.0 0.00 0.04 0.02 95 996.1
20260905013516 50 293 1.0 2.0 0.01 0.04 0.02 94 996.1
20260905012516 50 0.0 1.0 0.01 0.04 0.02 94 996.0
20260905011516 50 0.0 1.0 0.01 0.04 0.02 95 995.9
20260905010516 50 0.0 0.0 0.01 0.04 0.02 94 995.9
20260905005516 51 0.0 1.0 0.01 0.04 0.02 95 995.8
20260905004516 51 0.0 0.0 0.01 0.04 0.02 94 995.8
20260905003516 51 0.0 0.0 0.00 0.03 0.01 94 995.8
20260905002536 51 0.0 0.0 0.00 0.03 0.01 94 995.8
20260905001516 51 0.0 1.0 0.00 0.03 0.01 94 995.8
20260905000516 51 293 1.0 1.0 0.00 0.03 0.01 94 995.8
20260904235516 51 293 1.0 2.0 0.00 0.03 0.01 94 995.8
20260904234516 51 293 1.0 2.0 0.01 0.03 0.01 94 995.8
20260904233536 51 293 1.0 2.0 0.01 0.03 0.01 94 995.8
20260904232516 51 293 1.0 2.0 0.01 0.03 0.01 94 995.8
20260904231516 51 293 1.0 2.0 0.01 0.03 0.01 94 995.8
20260904230516 51 293 1.0 2.0 0.01 0.03 0.01 94 995.8
20260904225536 51 0.0 1.0 0.01 0.03 0.01 93 995.8
20260904224516 51 0.0 1.0 0.00 0.02 0.00 93 995.8
20260904223516 51 293 1.0 2.0 0.00 0.02 0.00 93 995.7
20260904222536 51 293 1.0 2.0 0.00 0.02 0.00 93 995.7
20260904221516 51 293 1.0 2.0 0.00 0.02 0.00 93 995.8
20260904220516 52 293 1.0 2.0 0.00 0.02 0.00 93 995.7
20260904215518 52 293 1.0 2.0 0.00 0.02 0.02 93 995.8
20260904214517 52 293 1.0 2.0 0.00 0.02 0.02 93 995.8
20260904213517 52 293 2.0 3.0 0.00 0.02 0.02 93 995.8
20260904212517 52 293 1.0 3.0 0.00 0.02 0.02 92 995.8
20260904211517 52 293 1.0 2.0 0.00 0.02 0.02 92 995.8
20260904210517 52 293 2.0 3.0 0.00 0.02 0.02 92 995.8
20260904205517 52 293 2.0 3.0 0.01 0.02 0.02 92 995.8
20260904204517 52 293 1.0 3.0 0.01 0.02 0.02 92 995.8
20260904203517 52 293 2.0 3.0 0.01 0.02 0.02 92 995.8
20260904202517 52 270 1.0 2.0 0.01 0.02 0.02 92 995.8
20260904201517 53 270 2.0 4.0 0.01 0.02 0.02 92 995.8
20260904200517 53 293 1.0 2.0 0.01 0.02 0.02 92 995.8
20260904195517 53 0.0 1.0 0.00 0.02 0.02 92 995.9
20260904194517 53 293 1.0 2.0 0.00 0.02 0.02 92 995.8
20260904193517 53 225 1.0 2.0 0.00 0.02 0.02 92 995.7
20260904192517 53 0.0 2.0 0.00 0.02 0.02 91 995.7
20260904191517 53 225 1.0 2.0 0.00 0.02 0.02 91 995.7
20260904190517 53 225 1.0 3.0 0.00 0.02 0.02 90 995.7
20260904185517 53 180 1.0 2.0 0.00 0.02 0.02 90 995.7
20260904184517 53 180 2.0 4.0 0.00 0.02 0.02 90 995.7
20260904183517 53 0.0 2.0 0.01 0.02 0.02 89 995.7
20260904182537 53 0.0 1.0 0.01 0.02 0.02 88 995.7
20260904181517 54 158 1.0 3.0 0.01 0.02 0.02 88 995.7
20260904180537 54 203 1.0 2.0 0.02 0.02 0.02 87 995.6
20260904175517 54 158 1.0 3.0 0.02 0.02 0.02 86 995.5
20260904174537 55 180 1.0 4.0 0.02 0.02 0.02 85 995.6
20260904173537 55 0.0 2.0 0.01 0.01 0.01 84 995.6
20260904172517 56 203 1.0 3.0 0.01 0.01 0.01 82 995.6
20260904171517 56 225 3.0 8.0 0.01 0.01 0.01 80 995.5
20260904170517 57 225 3.0 8.0 0.00 0.00 0.00 77 995.6
20260904165537 58 203 5.0 8.0 0.00 0.00 0.00 71 995.5
20260904164517 59 203 6.0 12.0 0.00 0.00 0.00 70 995.6
20260904163537 60 180 5.0 10.0 0.00 0.00 0.00 66 995.5
20260904162517 61 23 2.0 4.0 0.00 0.00 0.00 64 995.4
20260904161517 61 23 2.0 5.0 0.00 0.00 0.00 62 995.5
20260904160517 61 23 2.0 4.0 0.00 0.00 0.00 64 995.5
20260904155517 61 23 2.0 3.0 0.00 0.00 0.00 62 995.5
20260904154517 61 23 2.0 5.0 0.00 0.00 0.00 60 995.6
20260904153517 61 23 2.0 4.0 0.00 0.00 0.00 59 995.7
20260904152537 62 23 2.0 4.0 0.00 0.00 0.00 59 995.8
20260904151517 62 23 2.0 3.0 0.00 0.00 0.00 59 995.9
20260904150517 62 23 2.0 5.0 0.00 0.00 0.00 57 995.9
20260904145517 62 45 2.0 4.0 0.00 0.00 0.00 58 995.9
20260904144517 62 23 2.0 3.0 0.00 0.00 0.00 59 996.0
20260904143517 62 23 2.0 3.0 0.00 0.00 0.00 58 996.0
20260904142517 62 0.0 2.0 0.00 0.00 0.00 58 996.2
20260904141517 62 135 1.0 2.0 0.00 0.00 0.00 61 996.1
20260904140517 62 0.0 1.0 0.00 0.00 0.00 59 996.3
20260904135537 63 113 2.0 4.0 0.00 0.00 0.00 55 996.4
20260904134517 63 45 1.0 4.0 0.00 0.00 0.00 52 996.4
20260904133517 64 0 3.0 7.0 0.00 0.00 0.00 52 996.5
20260904132517 64 23 3.0 5.0 0.00 0.00 0.00 51 996.5
20260904131517 64 23 2.0 4.0 0.00 0.00 0.00 52 996.7
20260904130517 63 45 1.0 3.0 0.00 0.00 0.00 58 996.7
20260904125517 63 113 2.0 5.0 0.00 0.00 0.00 56 996.8
20260904124517 63 113 3.0 8.0 0.00 0.00 0.00 56 996.9
20260904123517 63 90 2.0 5.0 0.00 0.00 0.00 56 997.0
20260904122517 63 135 3.0 6.0 0.00 0.00 0.00 57 997.1
20260904121517 63 135 3.0 6.0 0.00 0.00 0.00 55 997.1
20260904120517 63 180 3.0 5.0 0.00 0.00 0.00 55 997.3
20260904115517 63 113 4.0 7.0 0.00 0.00 0.00 56 997.4
20260904114517 64 90 2.0 3.0 0.00 0.00 0.00 52 997.5
20260904113517 63 45 2.0 5.0 0.00 0.00 0.00 60 997.7
20260904112517 62 135 1.0 3.0 0.00 0.00 0.00 60 997.7
20260904111517 61 23 2.0 3.0 0.00 0.00 0.00 59 997.9
20260904110537 61 45 1.0 3.0 0.00 0.00 0.00 60 998.0
20260904105517 61 135 2.0 3.0 0.00 0.00 0.00 62 998.1
20260904104517 61 113 2.0 3.0 0.00 0.00 0.00 63 998.2
20260904103538 61 113 2.0 4.0 0.00 0.00 0.00 64 998.2
20260904102557 60 90 1.0 4.0 0.00 0.00 0.00 64 998.3
20260904101537 60 203 1.0 3.0 0.00 0.00 0.00 66 998.4
20260904100517 60 113 2.0 8.0 0.00 0.00 0.00 67 998.5
20260904095517 59 0 2.0 5.0 0.00 0.00 0.00 67 998.6
20260904094517 58 0 3.0 5.0 0.00 0.00 0.00 66 998.7
20260904093517 58 113 2.0 4.0 0.00 0.00 0.00 68 998.8
20260904092517 58 135 3.0 7.0 0.00 0.00 0.00 69 998.9
20260904091517 57 135 4.0 8.0 0.00 0.00 0.00 72 999.0
20260904090517 57 68 1.0 4.0 0.00 0.00 0.00 72 999.0
20260904085517 57 135 3.0 7.0 0.00 0.00 0.00 75 999.1
20260904084537 56 113 2.0 3.0 0.00 0.00 0.00 77 999.1
20260904083517 55 90 3.0 6.0 0.00 0.00 0.00 76 999.1
20260904082517 55 45 1.0 3.0 0.00 0.00 0.00 78 999.2
20260904081517 54 113 2.0 5.0 0.00 0.00 0.00 80 999.3
20260904080517 53 0.0 1.0 0.00 0.00 0.00 80 999.3
20260904075517 53 45 1.0 3.0 0.00 0.00 0.00 82 999.4
20260904074516 52 270 1.0 3.0 0.00 0.00 0.00 84 999.3